TimeCDT,TemperatureF,Dew PointF,Humidity,Sea Level PressureIn,VisibilityMPH,Wind Direction,Wind SpeedMPH,Gust SpeedMPH,PrecipitationIn,Events,Conditions,WindDirDegrees,DateUTC
12:53 AM,61.0,57.9,90,30.01,10.0,Calm,Calm,-,N/A,,Clear,0,2012-09-30 05:53:00
1:53 AM,59.0,57.0,93,30.01,10.0,Calm,Calm,-,N/A,,Clear,0,2012-09-30 06:53:00
2:53 AM,57.9,57.0,97,29.99,10.0,SW,3.5,-,N/A,,Clear,220,2012-09-30 07:53:00
3:53 AM,57.0,55.9,96,29.99,10.0,WSW,4.6,-,N/A,,Clear,240,2012-09-30 08:53:00
4:53 AM,57.0,55.0,93,29.97,10.0,WSW,3.5,-,N/A,,Clear,240,2012-09-30 09:53:00
5:53 AM,55.9,55.0,97,29.97,10.0,SW,5.8,-,N/A,,Clear,220,2012-09-30 10:53:00
6:53 AM,55.9,55.0,97,29.98,10.0,SW,5.8,-,N/A,,Clear,230,2012-09-30 11:53:00
7:53 AM,55.9,54.0,93,29.99,10.0,SW,8.1,-,N/A,,Clear,220,2012-09-30 12:53:00
8:53 AM,59.0,57.0,93,30.00,10.0,SW,6.9,-,N/A,,Clear,230,2012-09-30 13:53:00
9:53 AM,63.0,59.0,87,30.01,10.0,SW,5.8,-,N/A,,Clear,230,2012-09-30 14:53:00
10:53 AM,68.0,57.9,70,30.01,10.0,Calm,Calm,-,N/A,,Clear,0,2012-09-30 15:53:00
11:53 AM,70.0,55.9,61,29.99,10.0,WNW,3.5,-,N/A,,Clear,290,2012-09-30 16:53:00
12:53 PM,73.0,57.0,57,29.96,10.0,Variable,5.8,-,N/A,,Clear,0,2012-09-30 17:53:00
1:53 PM,75.0,57.9,55,29.95,10.0,SW,4.6,-,N/A,,Clear,230,2012-09-30 18:53:00
2:53 PM,77.0,57.0,50,29.91,10.0,Variable,3.5,-,N/A,,Clear,0,2012-09-30 19:53:00
3:53 PM,78.1,55.9,46,29.88,10.0,Calm,Calm,-,N/A,,Clear,0,2012-09-30 20:53:00
4:53 PM,79.0,55.9,45,29.87,10.0,Variable,3.5,-,N/A,,Clear,0,2012-09-30 21:53:00
5:53 PM,77.0,55.0,47,29.86,10.0,Calm,Calm,-,N/A,,Clear,0,2012-09-30 22:53:00
6:53 PM,77.0,55.9,48,29.86,10.0,NE,3.5,-,N/A,,Clear,40,2012-09-30 23:53:00
7:53 PM,71.1,61.0,70,29.87,10.0,ENE,3.5,-,N/A,,Clear,60,2012-10-01 00:53:00
8:53 PM,70.0,59.0,68,29.89,10.0,ESE,3.5,-,N/A,,Clear,110,2012-10-01 01:53:00
10:53 PM,66.9,59.0,76,29.90,10.0,SSW,9.2,-,N/A,,Clear,210,2012-10-01 03:53:00
11:53 PM,66.0,54.0,65,29.91,10.0,SW,11.5,-,N/A,,Clear,220,2012-10-01 04:53:00